Regional Weather Roundup
Issued by NWS

Home | Current Version | Previous Version | Graphics & Text | Print | Product List | Glossary On
Versions: 1 2 3 4 5 6 7 8 9 10 11 12 13 14 15 16 17 18 19 20 21 22 23 24 25 26 27 28 29 30 31 32 33 34 35 36 37 38 39 40 41 42 43 44 45 46 47 48 49 50
000
ASUS43 KFSD 232202
RWRSD

WEATHER ROUNDUP FOR SOUTH DAKOTA
NATIONAL WEATHER SERVICE SIOUX FALLS SD
500 PM CDT WED JUL 23 2014

NOTE: "FAIR" INDICATES FEW OR NO CLOUDS BELOW 12,000 FEET WITH NO
SIGNIFICANT WEATHER AND/OR OBSTRUCTIONS TO VISIBILITY.


SDZ001>005-009-010-012>017-232300-
NORTHWEST AND NORTH CENTRAL SOUTH DAKOTA

CITY           SKY/WX    TMP DP  RH WIND       PRES   REMARKS
BUFFALO          N/A     86  61  42 E22G30    30.03F
FAITH            N/A     85  62  46 SE17G25   30.14F
MOBRIDGE       MOSUNNY   83  60  45 SE15      30.15F
$$

SDZ012>016-024>037-041>051-057-063-072>074-232300-
SOUTHWEST AND SOUTH CENTRAL SOUTH DAKOTA

CITY           SKY/WX    TMP DP  RH WIND       PRES   REMARKS
RAPID CTY ARPT SUNNY     84  64  50 SE17      30.14F
PIERRE         MOSUNNY   87  55  33 E18G25    30.12F
CUSTER         SUNNY     79  61  53 SE10G18   30.29F
ELLSWORTH AFB  SUNNY     85  65  50 S17       30.14F
PHILIP         SUNNY     92  61  35 SE15G23   30.10F
PINE RIDGE     SUNNY     86  67  52 E14       30.15F
WINNER         FAIR      88  51  28 SE14G23   30.18F
$$

SDZ004>011-016>023-039-040-232300-
NORTHEAST SOUTH DAKOTA

CITY           SKY/WX    TMP DP  RH WIND       PRES   REMARKS
ABERDEEN       MOSUNNY   80  56  43 SE8       30.21F
WATERTOWN      SUNNY     79  53  40 E6        30.24F
SISSETON         N/A     78  55  44 CALM      30.22F
$$

SDZ017-020-022-023-036>040-048>070-232300-
SOUTHEAST SOUTH DAKOTA

CITY           SKY/WX    TMP DP  RH WIND       PRES   REMARKS
SIOUX FALLS    MOSUNNY   80  58  46 E10       30.21F
HURON          SUNNY     81  55  40 E12       30.19F
CHAMBERLAIN    MOSUNNY   85  52  31 SE8       30.18F
MITCHELL       SUNNY     83  59  44 SE10      30.19F
YANKTON        SUNNY     81  61  50 NE9       30.19F
$$

ABBREVIATIONS USED IN REMARKS
   TC - TEMPERATURE IN CELSIUS
  WCI - WIND CHILL INDEX
   HX - HEAT INDEX
  VSB - VISIBILITY



USA.gov is the U.S. government's official web portal to all federal, state and local government web resources and services.